Home   Weather   Castrop-Rauxel   Past weeks

Flag for Germany Past Weather in Castrop-Rauxel, North Rhine-Westphalia, Germany — Yesterday and Last 2 Weeks

Now
46 °F

Sunny.


Feels Like: 41 °F
Forecast: 36 / 43 °F
Wind: 12 mph from South

Location: Dortmund / Wickede

Current Time: Dec 7, 2016 at 3:50:13 pm

Latest Report: Dec 7, 2016 at 3:20 pm


Visibility: 10 mi

Pressure: 30.39 "Hg

Humidity: 62%

Dew Point: 34 °F

Location of Castrop-RauxelLocation

Past Weather in Castrop-Rauxel — Graph

°F

Castrop-Rauxel Temperature Yesterday

Maximum temperature yesterday: 41 °F (at 12:50 pm)
Minimum temperature yesterday: 27 °F (at 5:20 am)
Average temperature yesterday: 33 °F

High & Low Weather Summary for the Past Weeks

 TemperatureHumidityPressure
High54 °F (Nov 22, 2:20 pm)93% (Nov 24, 5:20 am)30.57 "Hg (Nov 24, 5:20 am)
Low21 °F (Nov 29, 6:50 am)41% (Nov 30, 12:20 pm)29.83 "Hg (Nov 22, 2:20 pm)
Average36 °F77%30.26 "Hg
* Reported Nov 22 2:20 pm — Dec 7 2:20 pm, Castrop-Rauxel, Weather by CustomWeather, © 2016

Note: Actual official high and low records may vary slightly from our data, if they occured in-between our weather recording intervals... More about our weather records

Advertising

Castrop-Rauxel Weather History for the Previous 24 Hours

Scroll right to see more
 ConditionsComfort  
Time TempWeatherWind HumidityBarometerVisibility
2:20 pm
Wed, Dec 7
46 °FSunny.15 mph62%30.39 "Hg10 mi
1:50 pm45 °FSunny.13 mph66%30.39 "Hg10 mi
1:20 pm45 °FSunny.13 mph66%30.39 "Hg10 mi
12:50 pm45 °FSunny.14 mph66%30.42 "Hg10 mi
12:20 pm45 °FSunny.12 mph66%30.42 "Hg10 mi
11:50 am43 °FSunny.14 mph66%30.42 "Hg10 mi
11:20 am43 °FSunny.14 mph66%30.42 "Hg10 mi
10:50 am41 °FSunny.14 mph70%30.42 "Hg10 mi
10:20 am41 °FSunny.15 mph70%30.42 "Hg10 mi
9:50 am41 °FSunny.15 mph70%30.42 "Hg10 mi
9:20 am41 °FSunny.14 mph70%30.42 "Hg10 mi
8:50 am41 °FSunny.14 mph70%30.42 "Hg10 mi
8:20 am41 °FClear.13 mph70%30.39 "Hg10 mi
7:50 am37 °FClear.12 mph75%30.42 "Hg10 mi
7:20 am37 °FClear.13 mph75%30.39 "Hg10 mi
6:50 am37 °FClear.13 mph75%30.42 "Hg10 mi
6:20 am36 °FClear.12 mph81%30.42 "Hg10 mi
5:50 am36 °FClear.12 mph81%30.42 "Hg10 mi
5:20 am36 °FClear.12 mph81%30.42 "Hg10 mi
10:20 pm
Tue, Dec 6
30 °FChilly.5 mph86%30.45 "HgN/A
9:50 pm32 °FClear.1 mph87%30.45 "Hg10 mi
9:20 pm32 °FClear.7 mph87%30.45 "Hg10 mi
8:50 pm32 °FClear.No wind87%30.45 "Hg10 mi
8:20 pm32 °FClear.5 mph87%30.45 "Hg10 mi
7:50 pm32 °FClear.2 mph87%30.45 "Hg10 mi
6:50 pm34 °FClear.9 mph87%30.42 "Hg10 mi
6:20 pm34 °FClear.7 mph81%30.42 "Hg10 mi
5:50 pm32 °FClear.7 mph87%30.42 "Hg10 mi
5:20 pm34 °FClear.6 mph87%30.45 "Hg10 mi
4:50 pm34 °FClear.2 mph81%30.45 "Hg10 mi
4:20 pm36 °FSunny.3 mph75%30.45 "Hg10 mi
3:50 pm37 °FSunny.3 mph70%30.42 "Hg10 mi
3:20 pm37 °FSunny.2 mph70%30.42 "Hg10 mi
Weather by CustomWeather, © 2016

See weather overviewHow to use our weather pages